DC9VQ-13 Weather Reports


time (UTC)temp
F
wind
direction
speed
knots
gust
knots
rain 1hr
in
rain 24hr
in
rain mn
in
humidity
%
barometer
mb
20260506102924 64 0.0 0.0 0.00 0.13 0.04 71 1005.6
20260506101921 63 0.0 0.0 0.00 0.13 0.04 71 1005.5
20260506100921 63 0.0 0.0 0.00 0.13 0.04 72 1005.6
20260506095918 63 0.0 0.0 0.00 0.13 0.04 72 1005.6
20260506094916 63 0.0 0.0 0.00 0.13 0.04 74 1005.7
20260506093914 62 0.0 0.0 0.00 0.13 0.04 74 1005.7
20260506092913 62 0.0 0.0 0.00 0.13 0.04 77 1005.7
20260506091910 62 0.0 0.0 0.00 0.13 0.04 77 1005.8
20260506090908 62 0.0 0.0 0.00 0.13 0.04 77 1005.7
20260506085906 61 0.0 0.0 0.00 0.13 0.04 77 1005.6
20260506084904 61 0.0 0.0 0.00 0.13 0.04 77 1005.5
20260506083901 61 0.0 0.0 0.00 0.13 0.04 78 1005.4
20260506082900 61 0.0 0.0 0.00 0.13 0.04 80 1005.4
20260506081858 60 0.0 0.0 0.00 0.13 0.04 80 1005.3
20260506080855 60 0.0 0.0 0.00 0.13 0.04 85 1005.5
20260506072848 58 0.0 0.0 0.00 0.13 0.04 89 1005.5
20260506071846 58 0.0 0.0 0.00 0.13 0.04 90 1005.5
20260506070844 58 0.0 0.0 0.00 0.13 0.04 91 1005.5
20260506061834 57 0.0 0.0 0.00 0.13 0.04 93 1005.4
20260506060835 56 0.0 0.0 0.00 0.13 0.04 93 1005.4
20260506050821 56 0.0 0.0 0.00 0.13 0.04 93 1005.4
20260506044815 56 0.0 0.0 0.00 0.13 0.04 93 1005.4
20260506043814 56 0.0 0.0 0.00 0.13 0.04 93 1005.4
20260506042812 56 0.0 0.0 0.00 0.13 0.04 93 1005.4
20260506041810 56 0.0 0.0 0.00 0.13 0.04 93 1005.5
20260506040813 56 0.0 0.0 0.00 0.13 0.04 93 1005.5
20260506035805 56 0.0 0.0 0.00 0.13 0.04 93 1005.5
20260506034803 56 0.0 0.0 0.00 0.13 0.04 93 1005.6
20260506033802 56 0.0 0.0 0.00 0.13 0.04 93 1005.6
20260506032800 56 0.0 0.0 0.00 0.13 0.04 93 1005.7
20260506031758 56 0.0 0.0 0.00 0.13 0.04 93 1005.6
20260506030755 56 0.0 0.0 0.00 0.13 0.04 93 1005.6
20260506025753 56 0.0 0.0 0.00 0.13 0.04 93 1005.7
20260506024752 56 0.0 0.0 0.00 0.13 0.04 93 1005.7
20260506023750 56 0.0 0.0 0.00 0.13 0.04 93 1005.7
20260506022748 56 0.0 0.0 0.00 0.13 0.04 93 1005.7
20260506021745 56 0.0 0.0 0.00 0.13 0.04 93 1005.7
20260506020744 56 0.0 0.0 0.00 0.13 0.04 93 1005.8
20260506015742 56 0.0 0.0 0.00 0.13 0.04 92 1005.8
20260506014740 57 0.0 0.0 0.00 0.13 0.04 92 1005.9
20260506013738 57 0.0 0.0 0.00 0.13 0.04 92 1005.9
20260506012735 57 0.0 0.0 0.00 0.13 0.04 92 1005.8
20260506011734 57 0.0 0.0 0.00 0.13 0.04 92 1005.8
20260506010732 57 0.0 0.0 0.01 0.13 0.04 92 1005.9
20260506005730 58 0.0 0.0 0.02 0.13 0.04 92 1005.8
20260506004728 58 0.0 0.0 0.03 0.13 0.04 92 1005.9
20260506003726 58 0.0 0.0 0.04 0.13 0.04 92 1006.0
20260506002724 58 0.0 0.0 0.04 0.13 0.04 92 1006.0
20260506001722 58 0.0 0.0 0.04 0.13 0.04 91 1006.1
20260506000720 58 0.0 0.0 0.03 0.12 0.03 91 1006.2
20260505235718 58 0.0 0.0 0.02 0.11 0.02 91 1006.3
20260505234716 58 0.0 0.0 0.01 0.10 0.01 90 1006.3
20260505233714 58 0.0 0.0 0.00 0.09 0.00 90 1006.3
20260505232711 58 0.0 0.0 0.00 0.09 0.00 89 1006.3
20260505231710 59 0.0 0.0 0.00 0.09 0.00 89 1006.4
20260505230708 59 0.0 0.0 0.00 0.09 0.00 89 1006.4
20260505225706 59 0.0 0.0 0.00 0.09 0.00 89 1006.4
20260505224704 59 0.0 0.0 0.00 0.09 0.00 89 1006.5
20260505223702 59 0.0 0.0 0.00 0.09 0.00 89 1006.6
20260505222700 59 0.0 0.0 0.00 0.09 0.00 88 1006.7
20260505221659 59 0.0 0.0 0.00 0.09 0.00 88 1006.7
20260505220656 59 0.0 0.0 0.00 0.09 0.00 88 1006.8
20260505215653 59 0.0 0.0 0.00 0.09 0.09 88 1006.8
20260505214651 59 0.0 0.0 0.00 0.09 0.09 88 1006.9
20260505213651 59 0.0 0.0 0.00 0.09 0.09 88 1007.0
20260505212647 59 0.0 0.0 0.00 0.09 0.09 88 1007.0
20260505211646 59 0.0 0.0 0.00 0.09 0.09 87 1007.0
20260505210644 59 0.0 0.0 0.00 0.09 0.09 87 1007.1
20260505205642 59 0.0 0.0 0.00 0.09 0.09 87 1007.1
20260505204640 59 0.0 0.0 0.00 0.09 0.09 87 1007.1
20260505203638 59 0.0 0.0 0.00 0.09 0.09 87 1007.1
20260505202636 59 0.0 0.0 0.00 0.09 0.09 87 1007.1
20260505201634 59 0.0 0.0 0.00 0.09 0.09 87 1007.1
20260505200632 59 0.0 0.0 0.00 0.09 0.09 87 1007.0
20260505195630 59 0.0 0.0 0.00 0.09 0.09 87 1007.0
20260505194627 60 0.0 0.0 0.00 0.09 0.09 86 1006.8
20260505193625 60 0.0 0.0 0.00 0.09 0.09 86 1006.9
20260505192624 60 0.0 0.0 0.00 0.09 0.09 86 1006.9
20260505191622 60 0.0 0.0 0.00 0.09 0.09 86 1006.8
20260505190621 60 0.0 0.0 0.00 0.09 0.09 86 1006.8
20260505185618 60 0.0 0.0 0.00 0.09 0.09 86 1006.8
20260505184618 60 0.0 0.0 0.00 0.09 0.09 86 1006.7
20260505183614 60 0.0 0.0 0.00 0.09 0.09 86 1006.7
20260505182612 60 0.0 0.0 0.01 0.09 0.09 86 1006.7
20260505181610 60 0.0 0.0 0.01 0.09 0.09 86 1006.7
20260505180608 60 0.0 0.0 0.01 0.09 0.09 86 1006.8
20260505175605 61 0.0 0.0 0.02 0.09 0.09 86 1006.9
20260505174603 61 0.0 0.0 0.02 0.09 0.09 85 1006.9
20260505173602 61 0.0 0.0 0.03 0.09 0.09 85 1007.0
20260505172600 61 0.0 0.0 0.02 0.08 0.08 85 1007.0
20260505171557 61 0.0 0.0 0.02 0.08 0.08 85 1007.0
20260505170556 61 0.0 0.0 0.03 0.08 0.08 85 1007.0
20260505165554 62 0.0 0.0 0.02 0.07 0.07 84 1007.1
20260505164552 62 0.0 0.0 0.02 0.07 0.07 83 1007.2
20260505163551 63 0.0 0.0 0.02 0.06 0.06 82 1007.2
20260505162547 63 0.0 0.0 0.02 0.06 0.06 82 1007.3
20260505161546 63 0.0 0.0 0.02 0.06 0.06 81 1007.3
20260505160544 64 0.0 0.0 0.01 0.05 0.05 81 1007.4
20260505152536 64 0.0 0.0 0.01 0.04 0.04 77 1007.3
20260505151534 65 0.0 0.0 0.02 0.04 0.04 76 1007.3
20260505150532 65 0.0 0.0 0.02 0.04 0.04 75 1007.4
20260505140520 71 0.0 0.0 0.01 0.01 0.01 60 1006.9
20260505124505 72 0.0 0.0 0.00 0.00 0.00 55 1007.4
20260505123000 72 0.0 0.0 0.00 0.00 0.00 55 1007.5
20260505121959 72 0.0 0.0 0.00 0.00 0.00 54 1007.5
20260505120957 72 0.0 0.0 0.00 0.00 0.00 56 1007.6
20260505115955 72 0.0 0.0 0.00 0.00 0.00 57 1007.6
20260505114953 72 0.0 0.0 0.00 0.00 0.00 56 1007.8
20260505113952 72 0.0 0.0 0.00 0.00 0.00 56 1007.9
20260505112948 72 0.0 0.0 0.00 0.00 0.00 57 1008.0
20260505111947 71 0.0 0.0 0.00 0.00 0.00 58 1008.1
20260505110945 71 0.0 0.0 0.00 0.00 0.00 58 1008.2